Back to catalog

FENGYUN 1C DEB

AliveSSO
NORAD 29976·DEBRIS·🇨🇳 China

Launched May 10, 1999 from Taiyuan Satellite Launch Center

Loading…

Next Passes (next 24 hours)

TLE

FreshSource: Space-Track

Epoch: Sep 13, 2026, 13:33 UTC

1 29976U 99025LA  26256.56477080  .00000073  00000-0  60103-4 0  9990
2 29976  98.9315 251.8038 0267385 199.4259 281.2327 13.98364849  1772

Track FENGYUN 1C DEB in real time with AllMySat

Download on the App Store